Location: Unspecified
(48.2082°N, 0.0000°E)
Time: 05:24:58
(UTC+00:00)

Transit 4A - Pass Details

Date: 22 June 2019
Orbit: 862 x 982 km, 66.8° (Epoch: 21 July)

Event Time Altitude Azimuth Distance (km) Brightness Sun altitude
Rises 14:26:01 0° 322° (NW) 3,697 11.1 52.3°
Reaches altitude 10° 14:29:14 10° 337° (NNW) 2,745 10.5 51.8°
Maximum altitude 14:34:12 23° 28° (NNE) 1,961 9.6 51.1°
Drops below altitude 10° 14:39:07 10° 79° (E) 2,709 10.1 50.3°
Sets 14:42:15 0° 94° (E) 3,637 10.6 49.9°
